LiveATC.Net - Listen to live air traffic control over the Internet! Contact LiveATC.net for advertising information


ICAO: KTTD  IATA: TTD   Airport: Portland-Troutdale Airport
City: Portland   State/Province: Oregon
Country: United States   Continent: North America
KTTD METAR Weather: KTTD 311953Z 00000KT 10SM SCT014 OVC048 13/09 A2985 RMK AO2 SLP107 T01280094
KTTD Flight Activity (FlightAware)
KTTD Airport Info   (AirNav) (iFlightPlanner)
KTTD Ground/Tower
Feed Status: DOWN
Last heard on: 2014-01-24 16:22:04 (280 days 4 hours 23 minutes ago)
KTTD Ground/Tower Audio Archives
FacilityFrequency
Troutdale Ground121.800
Troutdale Tower120.900


NOTICE

Unauthorized use prohibited. See LiveATC.net Terms of Service


Find LiveATC Audio Streams


Airport/ARTCC Code

Frequency
(e.g., 124.400, 128.75)
Site-wide search

Browse LiveATC Feeds
LiveATC Coverage Map
Top 50 LiveATC Feeds
Bad Weather Areas

LiveATC FAQ
Offer a LiveATC Feed
Contact LiveATC.net
Press Inquiries

LiveATC on iPhone
LiveATC on Android

LiveATC Mobile
(Mobile browser)

ATC Audio Archives
Interesting Recordings

LiveATC Forums


Home Page
About LiveATC.net
Make a Donation
LiveATC Bookstore

Terms of Use
Privacy Policy

ATC/Radar Sites
U.S. ARTCC Freqs
Canadian Air Freqs

AIRMETs/SIGMETs

FAA Airport Status
Nat'l Airspace Status
Arrival Demand Charts


Server Software By:
Icecast.org
Liquidsoap

Please make a donation to help us keep growing!